Hourly Weather Barlozno

Today, 19 April, Monday

Time Temperature Precipitation Wind Pressure Humidity
00:00 +7°C° 0 mm 2 mps 758 mmHg 88%
01:00 +6°C° 0 mm 2 mps 758 mmHg 87%
02:00 +6°C° 0.1 mm 2 mps 757 mmHg 90%
03:00 +6°C° 0.1 mm 2 mps 757 mmHg 92%
04:00 +6°C° 0.1 mm 2 mps 757 mmHg 94%
05:00 +7°C° 0 mm 2 mps 757 mmHg 90%
06:00 +8°C° 0 mm 2 mps 757 mmHg 86%
07:00 +9°C° 0 mm 3 mps 757 mmHg 82%
08:00 +11°C° 0 mm 3 mps 757 mmHg 74%
09:00 +13°C° 0 mm 3 mps 757 mmHg 65%
10:00 +15°C° 0 mm 4 mps 757 mmHg 56%
11:00 +17°C° 0 mm 4 mps 757 mmHg 53%
12:00 +17°C° 0 mm 4 mps 757 mmHg 49%
13:00 +18°C° 0 mm 4 mps 757 mmHg 45%
14:00 +17°C° 0.2 mm 4 mps 756 mmHg 49%
15:00 +17°C° 0.2 mm 4 mps 756 mmHg 53%
16:00 +15°C° 0.2 mm 4 mps 756 mmHg 57%
17:00 +13°C° 0.2 mm 4 mps 756 mmHg 63%
18:00 +12°C° 0.2 mm 3 mps 756 mmHg 70%
19:00 +10°C° 0.2 mm 3 mps 756 mmHg 76%
20:00 +10°C° 0 mm 2 mps 756 mmHg 76%
21:00 +10°C° 0 mm 2 mps 756 mmHg 77%
22:00 +10°C° 0 mm 2 mps 756 mmHg 77%
23:00 +9°C° 0 mm 2 mps 756 mmHg 78%

Tomorrow, 20 April, Tuesday

Time Temperature Precipitation Wind Pressure Humidity
00:00 +10°C° 0 mm 1 mps 756 mmHg 80%
01:00 +9°C° 0 mm 1 mps 756 mmHg 81%
02:00 +9°C° 0 mm 1 mps 756 mmHg 81%
03:00 +9°C° 0 mm 1 mps 756 mmHg 80%
04:00 +9°C° 0 mm 1 mps 756 mmHg 80%
05:00 +10°C° 0 mm 1 mps 756 mmHg 78%
06:00 +10°C° 0 mm 1 mps 756 mmHg 76%
07:00 +11°C° 0 mm 1 mps 756 mmHg 74%
08:00 +12°C° 0 mm 2 mps 756 mmHg 68%
09:00 +13°C° 0 mm 2 mps 755 mmHg 62%
10:00 +15°C° 0 mm 2 mps 755 mmHg 55%
11:00 +15°C° 0.1 mm 2 mps 755 mmHg 52%
12:00 +15°C° 0.1 mm 2 mps 754 mmHg 49%
13:00 +16°C° 0.1 mm 2 mps 754 mmHg 46%
14:00 +14°C° 0 mm 3 mps 754 mmHg 49%
15:00 +14°C° 0 mm 3 mps 753 mmHg 52%
16:00 +14°C° 0 mm 3 mps 753 mmHg 54%
17:00 +12°C° 0 mm 3 mps 753 mmHg 62%
18:00 +11°C° 0 mm 3 mps 753 mmHg 70%
19:00 +9°C° 0 mm 2 mps 753 mmHg 77%
20:00 +8°C° 0 mm 2 mps 753 mmHg 79%
21:00 +7°C° 0 mm 2 mps 753 mmHg 80%
22:00 +8°C° 0 mm 1 mps 753 mmHg 81%
23:00 +8°C° 0 mm 1 mps 752 mmHg 80%

Day after tomorrow, 21 April, Wednesday

Time Temperature Precipitation Wind Pressure Humidity
00:00 +8°C° 0 mm 1 mps 752 mmHg 79%
01:00 +7°C° 0 mm 1 mps 752 mmHg 78%
02:00 +7°C° 0 mm 1 mps 752 mmHg 78%
03:00 +7°C° 0 mm 1 mps 751 mmHg 78%
04:00 +7°C° 0 mm 1 mps 751 mmHg 78%
05:00 +8°C° 0 mm 1 mps 751 mmHg 74%
06:00 +9°C° 0 mm 1 mps 751 mmHg 71%
07:00 +11°C° 0 mm 1 mps 751 mmHg 68%
08:00 +12°C° 0.1 mm 1 mps 751 mmHg 62%
09:00 +13°C° 0.1 mm 1 mps 750 mmHg 57%
10:00 +14°C° 0.1 mm 2 mps 750 mmHg 51%
11:00 +14°C° 0.1 mm 2 mps 750 mmHg 50%
12:00 +15°C° 0.1 mm 2 mps 750 mmHg 49%
13:00 +15°C° 0.1 mm 2 mps 749 mmHg 48%
14:00 +14°C° 0.1 mm 3 mps 749 mmHg 49%
15:00 +14°C° 0.1 mm 3 mps 749 mmHg 50%
16:00 +14°C° 0.1 mm 4 mps 749 mmHg 51%
17:00 +12°C° 0.1 mm 4 mps 749 mmHg 59%
18:00 +9°C° 0.1 mm 5 mps 749 mmHg 68%
19:00 +8°C° 0.1 mm 5 mps 749 mmHg 76%
20:00 +7°C° 0 mm 4 mps 749 mmHg 75%
21:00 +6°C° 0 mm 4 mps 749 mmHg 74%
22:00 +5°C° 0 mm 3 mps 750 mmHg 73%
23:00 +4°C° 0 mm 4 mps 749 mmHg 75%

22 April, Thursday

Time Temperature Precipitation Wind Pressure Humidity
00:00 +3°C° 0 mm 4 mps 749 mmHg 76%
01:00 +2°C° 0 mm 5 mps 749 mmHg 77%
02:00 +1°C° 0 mm 5 mps 749 mmHg 76%
03:00 +1°C° 0 mm 5 mps 749 mmHg 75%
04:00 -1°C° 0 mm 6 mps 749 mmHg 74%
05:00 +1°C° 0 mm 6 mps 749 mmHg 71%
06:00 0°C° 0 mm 7 mps 749 mmHg 69%
07:00 +2°C° 0 mm 7 mps 749 mmHg 67%
08:00 +2°C° 0 mm 7 mps 749 mmHg 66%
09:00 +2°C° 0 mm 7 mps 749 mmHg 65%
10:00 +3°C° 0 mm 7 mps 749 mmHg 63%
11:00 +4°C° 0.3 mm 7 mps 749 mmHg 61%
12:00 +5°C° 0.3 mm 7 mps 749 mmHg 59%
13:00 +5°C° 0.3 mm 7 mps 749 mmHg 57%
14:00 +5°C° 0.2 mm 7 mps 749 mmHg 58%
15:00 +5°C° 0.2 mm 6 mps 749 mmHg 60%
16:00 +5°C° 0.2 mm 6 mps 749 mmHg 62%
17:00 +5°C° 0.1 mm 5 mps 749 mmHg 70%
18:00 +3°C° 0.1 mm 5 mps 749 mmHg 78%
19:00 +3°C° 0.1 mm 4 mps 749 mmHg 86%
20:00 +3°C° 0.2 mm 4 mps 749 mmHg 87%
21:00 +3°C° 0.2 mm 4 mps 749 mmHg 88%
22:00 +3°C° 0.2 mm 4 mps 749 mmHg 89%
23:00 +1°C° 0 mm 4 mps 750 mmHg 90%

23 April, Friday

Time Temperature Precipitation Wind Pressure Humidity
00:00 +1°C° 0 mm 4 mps 750 mmHg 91%
01:00 0°C° 0 mm 4 mps 750 mmHg 92%
02:00 0°C° 0 mm 4 mps 750 mmHg 90%
03:00 +1°C° 0 mm 4 mps 751 mmHg 89%
04:00 +1°C° 0 mm 5 mps 751 mmHg 88%
05:00 +1°C° 0 mm 4 mps 752 mmHg 89%
06:00 +1°C° 0 mm 4 mps 752 mmHg 91%
07:00 +3°C° 0 mm 4 mps 752 mmHg 93%
08:00 +3°C° 0.2 mm 4 mps 753 mmHg 91%
09:00 +2°C° 0.2 mm 5 mps 753 mmHg 90%
10:00 +3°C° 0.2 mm 6 mps 754 mmHg 88%
11:00 +4°C° 0.2 mm 6 mps 754 mmHg 76%
12:00 +5°C° 0.2 mm 6 mps 754 mmHg 65%
13:00 +7°C° 0.2 mm 6 mps 754 mmHg 53%
14:00 +8°C° 0.1 mm 6 mps 754 mmHg 49%
15:00 +8°C° 0.1 mm 6 mps 754 mmHg 45%
16:00 +8°C° 0.1 mm 5 mps 754 mmHg 41%
17:00 +7°C° 0 mm 4 mps 754 mmHg 47%
18:00 +5°C° 0 mm 3 mps 754 mmHg 52%
19:00 +6°C° 0 mm 1 mps 754 mmHg 58%
20:00 +6°C° 0 mm 1 mps 754 mmHg 63%
21:00 +4°C° 0 mm 2 mps 754 mmHg 69%
22:00 +4°C° 0 mm 2 mps 754 mmHg 75%
23:00 +3°C° 0.3 mm 2 mps 754 mmHg 81%

24 April, Saturday

Time Temperature Precipitation Wind Pressure Humidity
00:00 +4°C° 0.3 mm 1 mps 754 mmHg 87%
01:00 +3°C° 0.3 mm 1 mps 753 mmHg 94%
02:00 +2°C° 1.1 mm 2 mps 754 mmHg 95%
03:00 +2°C° 1.1 mm 2 mps 754 mmHg 96%
04:00 +1°C° 1.1 mm 2 mps 754 mmHg 97%
05:00 +2°C° 0.2 mm 2 mps 754 mmHg 91%
06:00 +2°C° 0.2 mm 3 mps 755 mmHg 86%
07:00 +2°C° 0.2 mm 3 mps 755 mmHg 80%
08:00 +3°C° 0.2 mm 3 mps 756 mmHg 72%
09:00 +4°C° 0.2 mm 4 mps 756 mmHg 64%
10:00 +5°C° 0.2 mm 4 mps 756 mmHg 57%
11:00 +5°C° 0.2 mm 5 mps 757 mmHg 54%
12:00 +6°C° 0.2 mm 5 mps 757 mmHg 52%
13:00 +5°C° 0.2 mm 6 mps 757 mmHg 49%
14:00 +4°C° 0.3 mm 6 mps 757 mmHg 52%
15:00 +4°C° 0.3 mm 6 mps 758 mmHg 55%
16:00 +3°C° 0.3 mm 6 mps 758 mmHg 59%
17:00 +2°C° 0.1 mm 5 mps 758 mmHg 62%
18:00 +1°C° 0.1 mm 5 mps 759 mmHg 65%
19:00 0°C° 0.1 mm 4 mps 759 mmHg 69%
20:00 -1°C° 0 mm 4 mps 759 mmHg 73%
21:00 0°C° 0 mm 3 mps 760 mmHg 77%
22:00 -1°C° 0 mm 3 mps 760 mmHg 82%
23:00 -1°C° 0 mm 3 mps 760 mmHg 81%
Show more